Regional Weather Roundup
Issued by NWS Little Rock, AR

Home | Current Version | Previous Version | Text Only | Print | Product List | Glossary Off
Versions: 1 2 3 4 5 6 7 8 9 10 11 12 13 14 15 16 17 18 19 20 21 22 23 24 25 26 27 28 29 30 31

000
ASUS44 KLZK 191505
RWRLZK

WEATHER ROUNDUP FOR ARKANSAS
NATIONAL WEATHER SERVICE LITTLE ROCK AR
900 AM CST MON FEB 19 2018

NOTE: "FAIR" INDICATES FEW OR NO CLOUDS BELOW 12,000 FEET WITH NO
SIGNIFICANT WEATHER AND/OR OBSTRUCTIONS TO VISIBILITY.

ARZ001-003-010-029-191600-
NORTHWEST ARKANSAS

CITY           SKY/WX    TMP DP  RH WIND       PRES   REMARKS
FAYETTEVILLE   CLOUDY    61  58  90 S14       29.88S
FORT SMITH     CLOUDY    65  59  81 S8        29.89S
HARRISON       CLOUDY    62  56  80 S14G22    29.91S
BENTONVILLE    CLOUDY    63  57  81 S20G26    29.87S
ROGERS         CLOUDY    63  57  81 S24G32    29.86F
SILOAM SPGS    LGT RAIN  62  58  86 S17       29.86S
HIGHFILL       LGT RAIN  63  59  87 S23G32    29.85S
SPRINGDALE     CLOUDY    63  59  88 S16G25    29.88S
$$

ARZ004-005-016-191600-
NORTH CENTRAL ARKANSAS

CITY           SKY/WX    TMP DP  RH WIND       PRES   REMARKS
BATESVILLE     CLOUDY    63  59  87 S8        30.02S
FLIPPIN        CLOUDY    63  56  78 S7        29.93S
MTN HOME       CLOUDY    60  57  89 SW10      29.93R
$$

ARZ040-041-191600-
WEST CENTRAL ARKANSAS

CITY           SKY/WX    TMP DP  RH WIND       PRES   REMARKS
MENA           CLOUDY    64  64 100 S8G26     29.95F
MOUNT IDA      CLOUDY    65  60  84 VRB7G23   29.96S
$$

ARZ009-017-025-026-028-191600-
NORTHEAST ARKANSAS

CITY           SKY/WX    TMP DP  RH WIND       PRES   REMARKS
JONESBORO      CLOUDY    63  62  97 S21       30.05S
NEWPORT          N/A     61  59  93 S14       30.04S
WALNUT RIDGE   PTSUNNY   61  59  93 S16       30.03R
BLYTHEVILLE    CLOUDY    64  61  90 S14G21    30.07S
$$

ARZ022-023-033-042-044-191600-
CENTRAL ARKANSAS

CITY           SKY/WX    TMP DP  RH WIND       PRES   REMARKS
LITTLE ROCK    CLOUDY    65  62  90 S9        30.04R
N LITTLE ROCK    N/A     64  61  92 S9G20     30.00F
JACKSONVILLE   CLOUDY    65  65  98 S8        30.01F
SEARCY         CLOUDY    63  32  31 S13       30.03
HOT SPRINGS    CLOUDY    65  61  87 SW10G20   30.03R
RUSSELLVILLE   CLOUDY    60  58  92 SE5       29.97S
CLINTON        CLOUDY    59  59 100 CALM      30.00S FOG
$$

ARZ036-191600-
EAST ARKANSAS

CITY           SKY/WX    TMP DP  RH WIND       PRES   REMARKS
WEST MEMPHIS   CLOUDY    63  62  97 S18       30.08S
$$

ARZ050-053-066-070-073-191600-
SOUTHWEST ARKANSAS

CITY           SKY/WX    TMP DP  RH WIND       PRES   REMARKS
ARKADELPHIA    CLOUDY    62  61  96 MISG      30.04R
CAMDEN         CLOUDY    66  61  82 S9        30.04F
TEXARKANA      CLOUDY    65  61  87 S14       30.00S
EL DORADO      CLOUDY    66  65  96 S16G24    30.06R
DE QUEEN       CLOUDY    65  62  90 SE8       29.94F
$$

ARZ056-057-069-191600-
SOUTHEAST ARKANSAS

CITY           SKY/WX    TMP DP  RH WIND       PRES   REMARKS
PINE BLUFF     FAIR      66  61  84 S24G32    30.05R
STUTTGART      CLOUDY    65  62  90 S21       30.06R
MONTICELLO     CLOUDY    67  62  84 S15G22    30.09R

$$






USA.gov is the U.S. government's official web portal to all federal, state and local government web resources and services.